This demonstration page uses our WeatherBlox Daily Observations layout. Learn more.

39.92423, -83.80882

Hourly Observations for July 22, 2018

Temp ( °F °C ) Dew Point ( °F °C ) Humidity (%) Winds ( mph kmh ) Pressure ( in mb ) Visibility ( mi km ) Precip ( " mm )
12:56 am 00:56 Clear 66 18.9 66 18.9 100 100 ESE 3 6 29.72 1006 8 12.87472 0 0
1:56 am 01:56 Clear 66 18.9 66 18.9 100 100 E 3 6 29.7 1006 8 12.87472 0 0
2:56 am 02:56 Mostly Clear with Mist and Fog 67 19.4 67 19.4 100 100 ENE 7 11 29.69 1005 6 9.65604 0 0
3:56 am 03:56 Mostly Clear with Mist and Fog 66 18.9 66 18.9 100 100 E 3 6 29.69 1005 5 8.0467 0 0
4:56 am 04:56 Mostly Clear with Mist and Fog 66 18.9 66 18.9 100 100 ENE 8 13 29.68 1005 4 6.43736 0 0
5:56 am 05:56 Clear 66 18.9 66 18.9 100 100 N 5 7 29.68 1005 10 16.0934 0 0
6:56 am 06:56 Partly Cloudy with Mist and Fog 66 18.9 66 18.9 100 100 NE 7 11 29.7 1006 5 8.0467 0 0
7:56 am 07:56 Sunny 67 19.4 67 19.4 100 100 NE 9 15 29.71 1006 8 12.87472 0 0
8:56 am 08:56 Sunny 68 20 67 19.4 96 96 ENE 9 15 29.72 1006 10 16.0934 0 0
9:56 am 09:56 Sunny 70 21.1 67 19.4 90 90 NE 12 19 29.73 1007 10 16.0934 0 0
10:56 am 10:56 Sunny 71 21.7 67 19.4 87 87 NE 10 17 29.73 1007 10 16.0934 0 0
11:56 am 11:56 Sunny 72 22.2 67 19.4 84 84 NE 13 20 29.75 1007 10 16.0934 0 0
12:56 pm 12:56 Sunny 74 23.3 66 18.9 76 76 NNE 10 17 29.76 1008 10 16.0934 0 0
1:56 pm 13:56 Sunny 74 23.3 66 18.9 76 76 NNE 13 20 29.75 1007 10 16.0934 0 0
2:56 pm 14:56 Sunny 75 23.9 65 18.3 71 71 NE 10 17 29.75 1007 10 16.0934 0 0
3:56 pm 15:56 Sunny 79 26.1 66 18.9 65 65 NE 14 22 29.74 1007 10 16.0934 0 0
4:56 pm 16:56 Sunny 78 25.6 66 18.9 67 67 NE 15 24 29.74 1007 10 16.0934 0 0
5:56 pm 17:56 Sunny 75 23.9 67 19.4 76 76 NE 15 24 29.75 1008 10 16.0934 0 0
6:56 pm 18:56 Sunny 75 23.9 66 18.9 74 74 NNE 15 24 29.76 1008 10 16.0934 0 0
7:56 pm 19:56 Sunny 72 22.2 65 18.3 79 79 NE 16 26 29.79 1009 10 16.0934 0 0
8:56 pm 20:56 Sunny 68 20 64 17.8 87 87 NNE 12 19 29.82 1010 10 16.0934 0 0
9:56 pm 21:56 Clear 66 18.9 63 17.2 90 90 NNE 10 17 29.84 1010 10 16.0934 0 0
10:56 pm 22:56 Clear 66 18.9 62 16.7 87 87 NNE 9 15 29.85 1011 10 16.0934 0 0
11:56 pm 23:56 Clear 65 18.3 62 16.7 90 90 NNE 10 17 29.85 1011 10 16.0934 0 0

Powered by AerisWeather